SCP
0 0 0 0 0 0 0 0 0 0 0 0 0 0 0 0 0 0 0 0 1 1 0 0 0 0 0 1 1 1 1 1 0 0 0 0 0 0 0 0 0 0 0
0 0 0 0 0 0 0 0 0 0 0 0 0 0 0 0 0 0 0 0 1 1 0 0 0 0 0 0 1 1 1 1 1 0 0 0 0 0 0 0 0 0 0
0 0 0 0 0 0 0 0 0 0 0 0 0 0 0 0 0 0 0 0 0 0 0 0 0 0 0 0 1 1 1 1 1 1 0 0 0 0 0 0 0 0 0
0 0 0 0 0 0 0 0 0 0 0 0 0 0 0 0 0 0 0 0 0 0 0 0 0 0 0 0 0 0 1 1 1 1 0 0 0 0 0 0 0 0 0
0 0 0 0 0 0 0 0 0 0 0 0 0 0 0 0 0 0 0 0 0 0 0 0 0 0 0 0 0 0 0 0 1 1 1 0 0 0 0 0 0 0 0
0 0 0 0 0 0 0 0 0 0 0 0 0 0 0 0 0 0 0 0 0 0 0 0 0 0 0 0 0 0 0 0 0 1 1 1 0 0 0 0 0 0 0
0 0 0 0 0 0 0 0 0 0 0 0 0 0 0 0 0 0 0 0 0 0 0 0 0 0 0 0 0 0 0 0 0 1 1 1 1 0 0 0 0 0 0
1 1 0 0 0 0 0 0 0 0 0 0 0 0 0 0 0 0 0 0 0 0 0 0 0 0 0 0 0 0 0 0 0 0 1 1 0 0 0 0 0 0 0
3 2 1 0 0 0 0 0 0 1 1 0 0 0 0 0 0 0 0 0 0 0 0 0 0 0 0 0 0 0 0 0 0 0 0 1 0 0 0 0 0 0 0
3 2 1 1 1 1 1 0 1 1 1 1 1 0 0 0 0 0 0 0 0 0 0 0 0 0 0 0 0 0 0 0 0 0 0 0 0 0 0 0 0 -0 -0
2 2 1 1 1 1 1 1 1 1 1 1 1 1 1 0 0 0 0 0 0 0 0 0 0 0 0 0 0 0 0 0 0 0 0 0 0 0 0 0 -0 -0 -0
1 1 1 1 1 1 1 1 1 1 1 1 1 1 1 0 0 0 0 0 0 0 0 0 0 0 0 0 0 0 0 0 0 0 0 0 0 -0 -0 -0 -0 -0 -0
0 1 1 1 1 1 1 1 1 1 1 1 1 1 0 0 0 0 0 0 0 0 0 0 0 0 0 0 0 0 0 0 0 0 0 0 -0 -0 -0 -0 -0 -0 0
0 0 1 1 1 1 1 1 1 1 1 1 1 1 0 0 0 0 0 0 0 0 0 0 0 0 0 0 0 0 0 0 0 0 0 0 -0 -0 -0 -0 0 0 0
0 0 0 0 0 1 1 1 1 1 1 1 1 1 0 0 0 0 0 0 0 0 0 0 0 0 0 0 0 0 0 0 0 0 0 -0 -0 -0 -0 0 0 0 0
0 0 0 0 0 0 0 0 0 0 0 0 0 0 0 0 0 0 0 0 0 0 0 0 0 0 0 0 0 0 0 0 -0 -0 -0 -0 -0 -0 0 0 0 0 0
0 0 0 0 0 0 0 0 0 0 0 0 0 0 0 0 0 0 0 0 0 0 0 0 0 0 0 0 0 0 0 -0 -0 -0 -0 -0 -0 0 0 0 0 0 0
0 0 0 0 0 0 0 0 0 0 0 0 0 0 0 0 1 1 1 1 1 1 1 0 0 0 0 0 0 0 -0 -0 -0 -0 -0 -0 0 0 0 0 0 0 0
0 0 0 0 0 0 0 0 0 0 0 0 0 0 0 0 1 1 1 1 1 1 1 1 1 1 0 0 0 0 0 0 -0 0 0 0 0 0 0 0 0 0 0
0 0 0 0 0 0 0 0 0 0 0 0 0 0 0 0 0 1 1 1 1 1 1 1 1 1 1 0 0 0 0 0 0 0 0 0 0 0 0 0 -0 -0 -0
0 0 0 0 0 0 0 0 0 0 0 0 0 0 0 0 0 0 0 1 1 1 1 1 1 1 1 1 0 0 0 0 0 0 0 0 0 0 0 0 0 0 0
0 0 0 0 0 0 0 0 0 0 0 0 0 0 0 0 0 0 0 0 0 0 0 1 1 1 1 1 0 0 0 0 0 0 0 0 0 0 0 0 0 0 0
0 0 0 0 0 0 0 0 0 0 0 0 0 0 0 0 0 0 0 0 0 0 0 0 0 0 0 0 0 0 0 0 0 0 0 0 1 1 0 0 0 0 0
0 0 0 0 0 0 0 0 0 0 0 0 0 0 0 0 0 0 0 0 0 0 0 0 0 0 0 0 0 0 0 0 0 0 0 1 1 1 1 0 0 0 0
0 0 0 0 0 0 0 0 0 0 0 0 0 0 0 0 0 0 0 0 0 0 0 0 0 0 0 0 0 0 0 0 0 0 0 0 1 1 1 0 0 0 0
0 0 0 0 0 0 0 0 0 0 0 0 0 0 0 0 0 0 0 0 0 0 0 0 0 0 0 0 0 0 0 0 0 0 0 0 1 1 1 0 0 0 0
Wind_Speed
5 5 5 5 5 5 4 5 2 4 4 5 6 6 7 6 6 6 5 5 9 9 10 11 13 15 16 16 18 20 22 23 22 20 18 18 18 18 17 15 14 13 12
6 6 6 7 5 5 7 4 4 5 5 5 6 6 7 6 5 5 6 5 9 8 8 10 12 14 16 16 16 18 22 24 24 22 21 19 19 19 18 16 15 14 13
8 7 6 5 5 5 7 6 7 6 6 7 5 5 5 5 6 6 7 6 6 10 10 10 10 14 16 18 17 16 19 23 24 24 23 21 20 18 17 17 16 14 14
10 8 7 7 6 4 5 5 4 8 6 4 3 4 5 4 6 7 7 6 6 5 8 11 10 13 16 16 17 15 15 20 23 25 25 24 22 20 17 16 15 14 14
11 9 9 6 6 6 5 4 4 7 4 4 4 3 4 5 6 7 6 7 7 8 9 5 7 13 12 12 14 14 14 15 19 25 28 28 27 23 20 16 14 14 15
11 9 8 9 9 7 4 5 4 5 5 4 5 4 4 5 5 6 6 6 6 8 7 7 7 8 7 9 12 13 14 13 16 24 28 28 27 25 22 18 16 17 17
13 9 8 9 9 8 6 6 5 5 6 4 6 6 5 6 5 5 4 4 4 6 7 6 6 6 4 6 10 11 14 14 14 21 26 28 28 25 25 19 17 19 19
12 10 9 8 9 8 8 7 6 5 4 6 7 7 5 4 8 4 3 4 3 5 5 5 5 6 7 6 5 8 11 10 11 16 21 25 26 30 29 25 26 23 20
11 9 10 8 9 8 7 7 7 9 6 6 6 7 5 3 3 5 6 4 4 6 5 5 5 6 7 9 6 3 5 8 14 15 21 25 29 31 31 31 29 22 19
8 9 8 10 9 7 8 8 9 6 7 6 5 7 8 6 7 5 4 6 7 6 6 6 5 6 7 9 8 4 3 7 5 11 23 28 33 33 31 28 24 22 20
7 7 6 8 6 6 7 8 7 7 6 6 6 7 6 6 8 8 9 5 5 3 2 4 3 5 5 6 6 1 3 1 6 14 26 33 33 31 24 23 22 22 23
4 7 8 6 5 5 7 9 6 7 7 7 6 7 6 7 7 7 8 9 8 6 2 2 2 3 4 4 4 2 0 7 10 14 23 26 26 23 22 22 23 23 23
1 4 7 5 4 7 8 8 7 7 8 8 7 7 7 9 8 8 9 9 8 8 3 1 0 2 4 4 4 2 5 12 12 11 14 16 16 17 19 20 21 21 21
1 4 3 5 5 6 6 5 6 7 7 7 8 8 8 9 8 7 9 8 8 9 3 4 1 1 3 5 8 8 9 13 10 11 13 13 13 15 16 15 15 16 16
2 2 2 5 6 4 3 4 4 6 6 7 8 9 9 9 8 6 7 5 6 7 6 6 1 1 1 5 6 7 7 8 9 11 11 12 12 12 12 13 13 13 12
1 1 1 4 4 4 3 4 4 4 5 7 7 7 8 8 7 8 7 6 6 7 7 4 2 2 2 5 9 7 8 6 6 8 9 11 11 13 12 12 13 12 13
3 3 3 4 4 4 4 4 4 5 6 7 8 9 9 9 9 7 7 7 7 7 8 7 6 4 6 6 9 7 7 7 7 10 11 11 12 12 13 13 13 13 12
4 3 1 3 4 3 3 4 5 5 6 7 7 7 8 8 7 8 7 8 8 7 7 8 6 5 6 8 9 9 8 9 9 12 13 12 13 14 14 14 13 12 12
4 3 1 2 3 4 4 3 4 5 5 6 7 7 6 8 7 6 6 6 6 5 5 6 6 5 3 5 7 9 8 7 6 12 11 10 11 13 14 14 13 13 13
4 3 4 4 4 4 4 3 2 4 3 3 3 5 5 6 6 5 5 5 5 6 5 6 7 5 4 3 5 7 7 6 6 10 10 10 12 13 13 13 13 12 12
4 5 5 5 5 5 7 8 5 3 2 2 3 4 5 7 8 8 6 4 3 4 5 6 5 5 5 3 2 3 4 4 4 5 7 11 12 12 12 11 11 12 12
5 5 7 7 8 7 8 7 6 3 3 4 3 3 4 6 5 7 9 9 9 6 4 3 3 2 2 1 2 3 5 3 5 5 4 6 10 8 9 6 2 1 7
3 5 7 6 6 7 7 7 7 6 6 6 6 4 4 4 3 1 2 4 6 6 6 5 4 3 1 2 1 3 5 4 5 4 4 6 10 7 5 6 2 4 4
3 4 6 7 5 6 4 5 3 5 6 7 7 7 7 8 9 10 6 5 7 8 8 7 6 5 4 3 2 1 2 7 7 4 3 4 6 7 6 6 2 5 6
5 4 4 6 8 6 3 7 7 6 7 8 9 10 9 8 9 13 7 6 6 5 5 5 4 3 3 1 2 2 2 3 5 3 1 2 1 1 4 3 3 5 4
4 4 2 3 7 7 2 5 9 5 5 6 7 7 8 8 8 11 10 8 7 6 5 3 3 4 5 3 2 2 2 2 3 2 3 3 4 4 4 3 1 2 3
Wind_Direction
225 219 218 230 247 279 252 225 227 236 246 253 272 278 273 252 258 267 268 227 235 251 263 265 266 267 264 255 239 222 211 208 212 195 191 199 198 190 189 185 180 173 171
247 248 227 240 230 261 277 287 278 269 269 273 250 240 256 276 264 268 273 238 195 217 247 268 280 282 277 269 251 232 217 207 206 196 188 198 198 191 189 185 182 178 176
245 256 257 266 264 253 268 278 264 267 265 251 272 276 266 265 274 283 284 281 228 206 216 243 270 285 283 273 260 240 223 213 206 197 187 190 197 186 187 181 178 179 178
244 249 254 244 246 243 249 253 263 260 258 288 281 270 268 270 262 255 260 265 267 269 237 228 244 273 281 272 261 251 231 219 209 196 186 186 193 181 181 178 175 182 181
255 257 271 276 283 258 250 255 251 266 287 281 263 234 248 256 249 255 271 263 260 275 291 264 242 261 271 278 271 265 252 230 211 196 189 188 185 173 171 167 179 188 186
254 258 268 269 262 258 247 257 250 255 272 293 295 275 250 254 262 263 256 250 262 286 301 320 303 284 261 276 277 270 265 246 216 200 196 189 178 171 158 156 186 195 191
250 243 249 258 256 255 253 255 251 260 275 285 269 256 239 212 224 259 248 255 280 300 309 318 318 326 297 254 262 264 265 255 224 208 204 190 174 161 142 158 190 200 197
236 229 234 250 258 260 247 253 252 251 258 267 279 285 261 218 179 200 240 246 270 283 290 307 323 323 316 303 294 285 271 257 245 225 209 179 165 144 148 169 197 198 198
210 217 222 241 258 260 260 255 252 253 252 255 274 285 284 275 332 168 189 231 256 275 289 280 300 314 321 307 291 264 261 283 273 233 188 167 148 146 160 188 199 190 191
229 225 224 231 242 255 255 243 242 248 251 252 251 259 272 298 292 286 205 191 215 245 253 274 282 299 330 322 326 342 318 299 267 175 163 149 145 160 183 194 189 184 189
268 252 244 239 232 247 260 255 248 246 247 256 254 251 247 251 250 273 283 270 275 287 276 267 294 307 338 335 299 62 342 7 136 148 146 148 158 175 184 182 181 186 192
294 292 266 246 239 238 248 255 250 251 250 246 256 264 248 250 252 250 267 283 292 295 336 280 282 325 326 335 325 43 3 124 107 122 146 159 166 170 172 177 185 191 196
327 327 295 276 246 246 246 249 253 250 250 251 251 260 264 262 269 280 284 284 289 286 276 210 242 338 321 357 5 345 135 124 120 127 139 149 154 163 171 181 190 196 199
64 243 251 305 267 248 246 242 249 252 256 256 256 263 276 272 266 264 270 278 284 282 306 289 18 30 35 45 47 56 106 117 125 118 127 143 162 175 179 188 195 200 200
145 212 49 283 274 268 300 295 263 255 258 264 266 262 262 270 270 271 276 288 270 276 281 272 294 82 156 108 90 97 108 124 137 141 151 165 176 178 182 189 198 200 199
62 229 250 296 296 304 297 279 261 260 269 275 278 277 272 277 276 256 254 250 249 254 263 284 269 206 209 126 129 139 131 159 172 174 187 192 190 188 192 196 202 203 202
63 45 14 311 301 309 304 290 295 296 285 286 287 282 275 267 263 259 248 241 241 237 247 256 252 189 191 173 150 165 158 210 192 194 199 199 196 194 200 203 206 207 208
97 104 256 285 298 306 316 310 300 312 310 305 304 297 290 283 270 259 256 249 244 236 236 245 240 202 195 185 174 187 198 214 213 183 195 196 199 198 199 206 209 208 211
95 96 82 329 330 334 326 314 305 302 315 321 319 306 300 286 281 272 270 270 264 251 240 244 237 193 183 196 202 202 208 228 216 160 180 182 200 202 202 208 210 213 218
64 62 49 30 14 354 2 357 304 269 288 308 325 332 342 333 328 301 280 277 264 246 227 229 233 207 175 190 207 207 193 199 216 166 180 178 188 197 206 213 218 221 226
86 69 52 44 31 19 18 1 2 25 358 352 48 13 15 27 28 17 10 341 310 258 230 244 240 214 184 165 210 227 220 185 219 214 178 166 176 183 187 204 220 220 226
103 80 56 45 43 41 6 357 338 63 44 32 67 84 51 27 26 38 45 45 35 13 340 310 277 230 189 63 6 290 260 219 212 215 217 195 159 166 162 131 86 201 215
91 70 61 50 56 54 10 8 353 49 55 46 29 35 81 49 358 45 129 129 78 51 24 19 38 55 73 74 22 322 302 245 232 220 211 206 153 155 134 108 357 328 306
47 52 69 58 71 68 10 336 317 76 67 63 60 55 53 55 15 346 9 33 46 50 28 37 56 59 44 40 66 141 355 338 318 276 292 241 154 164 164 132 115 42 16
39 33 55 69 81 84 10 332 317 81 77 74 63 44 35 38 3 340 9 47 50 66 100 92 104 127 125 62 2 34 9 353 305 265 292 245 124 241 185 192 111 91 79
26 359 29 75 80 79 52 347 331 57 74 86 83 74 47 10 2 1 12 24 40 26 17 83 144 175 171 178 226 237 271 272 289 332 0 304 188 188 200 180 168 170 144